Location: Eschentzwiller
(47.7125°N, 7.3981°E)
Time: 01:11:52
(UTC+00:00)

Meteor 2-21 - Pass Details

Date: 27 October 2020
Orbit: 933 x 967 km, 82.5° (Epoch: 26 November)

Event Time Altitude Azimuth Distance (km) Brightness Sun altitude
Rises 16:51:59 0° 350° (N) 3,654 7.5 -6.0°
Reaches altitude 10° 16:54:30 10° 352° (N) 2,699 6.8 -6.4°
Maximum altitude 17:00:42 83° 80° (E) 964 4.5 -7.4°
Drops below altitude 10° 17:06:47 10° 169° (S) 2,656 6.8 -8.4°
Sets 17:09:15 0° 170° (S) 3,592 7.5 -8.8°
